Weather in Kachar

Kazakhstan     53°22′09″N   62°52′08″E
temp.,
°C
wind,
m/s
gust,
m/s
humid.,
%
clouds,
%
prec.,
mm/h
press.,
hPa
HPBL,
m
20 april, tue
tue2000:00−2ene48450 0.0 1033525
03:00−2ene24480 0.0 1033222
06:00−3nne23480 0.0 103479
09:000n34350 0.0 1034513
12:00+3nne56310 0.0 10341521
15:00+5nne45275 0.0 10331595
18:00+6nne34260 0.0 10321534
21:00+4nne11370 0.0 103210
21 april, wed
wed2100:00+3wsw22410 0.0 103210
03:00+1w35510 0.0 103265
06:00+1wnw46560 0.0 103288
09:00+4nw35520 0.0 1033222
12:00+9nw44400 0.0 10331011
15:00+11nnw33340 0.0 10321458
18:00+12nw23330 0.0 10321624
21:00+10ene114239 0.0 103310
22 april, thu
thu2200:00+8sw224999 0.0 103410
03:00+6s115199 0.0 103410
06:00+5sw225684 0.0 103612
09:00+8sse234974 0.0 1037147
12:00+12sse4538100 0.0 10371152
15:00+14s5635100 0.0 10361698
18:00+13s5537100 0.0 10361778
21:00+11sse4850100 0.0 1036212
23 april, fri
fri2300:00+9sse41061100 0.0 1035229
03:00+8sse51164100 0.0 1035279
06:00+6sse51162100 0.0 1035282
09:00+7sse5954100 0.0 1035345
12:00+11sse6844100 0.0 1034637
15:00+14sse7740100 0.0 10321583
18:00+14sse7738100 0.0 10311866
21:00+11sse51043100 0.0 1031315
24 april, sat
sat2400:00+10sse4944100 0.0 1029256
03:00+9se5950100 0.0 1028265
06:00+8sse5954100 0.0 1027281
09:00+7sse4861100 0.1 1026471
12:00+11sse7938100 0.1 10231131
15:00+12sse91135100 0.0 10221145
18:00+11sse9114191 0.0 10201021
21:00+10ese61341100 0.1 1018747